SCP
0 0 0 0 0 0 0 0 0 0 0 0 0 0 0 0 0 0 0 0 0 0 0 0 0 0 0 0 0 0 0 0 0 0 0 0 0 0 0 0 0 0 0
0 0 0 0 0 0 0 0 0 0 0 0 0 0 0 0 0 0 0 0 0 0 0 0 0 0 0 0 0 0 0 0 0 0 0 0 0 0 0 0 0 -0 -0
0 0 0 0 0 0 0 0 0 0 0 0 0 0 0 0 0 0 0 0 0 0 0 0 0 0 0 0 0 0 0 0 0 0 0 0 0 0 0 -0 -0 -0 -0
0 0 0 0 0 0 0 0 0 0 0 0 0 0 0 0 0 0 0 0 0 0 0 0 0 0 0 0 0 0 0 0 0 0 0 0 0 0 0 0 -0 -0 0
0 0 0 0 0 0 0 0 0 0 0 0 0 0 0 0 0 0 0 0 0 0 0 0 0 0 0 0 0 0 0 0 0 0 0 0 0 0 -0 -0 -0 -0 -0
0 0 0 0 0 0 0 0 0 0 0 0 0 0 0 0 0 0 0 0 0 0 0 0 0 0 0 0 0 0 0 0 0 0 0 0 0 0 0 0 -0 -0 -0
0 0 0 0 0 0 0 0 0 0 0 0 0 0 0 0 0 0 0 0 0 0 0 0 0 0 0 0 0 0 0 0 0 0 0 0 0 0 0 0 0 0 0
0 0 0 0 0 0 0 0 0 0 0 0 0 0 0 0 0 0 0 0 0 0 0 0 0 0 0 0 0 0 0 0 0 0 0 0 0 0 0 0 0 0 0
0 0 0 0 0 0 0 0 0 0 0 0 0 0 0 0 0 0 0 0 0 0 0 0 0 0 0 0 0 0 0 0 0 0 0 0 0 0 0 0 0 0 0
0 0 0 0 0 0 0 0 0 0 0 0 0 0 0 0 0 0 0 0 0 0 0 0 0 0 0 0 0 0 0 0 0 0 0 0 0 0 0 0 0 0 0
-0 0 0 0 0 0 0 0 0 0 0 0 0 0 0 0 0 0 0 0 0 0 0 0 0 0 0 0 0 0 0 0 0 0 0 0 0 0 0 0 0 0 0
-0 -0 -0 0 0 0 0 0 0 0 0 0 0 0 0 0 0 0 0 0 0 0 0 0 0 0 0 0 0 0 0 0 0 0 0 0 0 0 0 0 0 0 0
-0 -0 -0 -0 -0 0 0 0 0 0 0 0 0 0 0 0 0 0 0 0 0 0 0 0 0 0 0 0 0 0 0 0 0 0 0 0 0 0 0 0 0 0 0
-0 -0 -0 -0 -0 0 0 0 0 0 0 0 0 0 0 0 0 0 0 0 0 0 0 0 0 0 0 0 0 0 0 0 0 0 0 0 0 0 0 0 0 0 0
-0 -0 -0 -0 0 0 0 0 0 0 0 0 0 0 0 0 0 0 0 0 0 0 0 0 0 0 0 0 0 0 0 0 0 0 0 0 0 0 0 0 0 0 0
-0 -0 -0 -0 0 0 0 0 0 0 0 0 0 0 0 0 0 0 0 0 0 0 0 0 0 0 0 0 0 0 0 0 0 0 0 0 0 0 0 0 0 0 0
-0 0 -0 0 0 0 0 0 0 0 0 0 0 0 0 0 0 0 0 0 0 0 0 0 0 0 0 0 0 0 0 0 0 0 0 0 0 0 0 0 0 0 0
0 0 0 0 0 0 0 0 0 0 0 0 0 0 0 0 0 0 0 0 0 0 0 0 0 0 0 0 0 0 0 0 0 0 0 0 0 0 0 0 0 0 0
0 0 0 0 0 0 0 0 0 0 0 0 0 0 0 0 0 -0 -0 0 0 0 0 0 0 0 0 0 0 0 0 0 0 0 0 0 0 0 0 0 0 0 0
0 0 0 0 0 0 0 0 0 0 0 0 0 0 0 0 0 0 0 0 0 0 0 0 0 0 0 0 0 0 0 0 0 0 0 0 0 0 0 0 0 0 0
0 0 0 0 0 0 0 0 0 0 0 0 0 0 0 0 0 0 0 0 0 0 0 0 0 0 0 0 0 0 0 0 0 0 0 0 0 0 0 0 0 0 0
0 0 0 0 0 0 0 0 0 0 0 0 0 0 0 0 0 0 0 0 0 0 0 0 0 0 0 0 0 0 0 0 0 0 0 0 0 0 0 0 0 0 0
0 0 0 0 0 0 0 0 0 0 0 0 0 0 0 0 0 0 0 0 0 0 0 0 0 0 0 0 0 0 0 0 0 0 0 0 0 0 0 0 0 0 0
0 -0 0 0 0 0 0 0 0 0 0 0 0 0 0 0 0 0 0 0 0 0 0 0 0 0 0 0 0 0 0 0 0 0 0 0 0 0 0 0 0 0 0
0 0 0 0 0 0 0 0 0 0 0 0 0 0 0 0 0 0 0 0 0 0 0 0 0 0 0 0 0 0 0 0 0 0 0 0 0 0 0 0 0 0 0
-0 -0 -0 0 0 0 0 0 0 0 0 0 0 0 0 0 0 0 0 0 0 0 0 0 0 0 0 0 0 0 0 0 0 0 0 0 0 0 0 0 0 0 0
Wind_Speed_500mb
57 54 58 67 72 81 91 99 97 93 91 89 88 86 88 92 94 92 91 87 84 81 79 75 70 63 58 52 48 45 44 45 47 46 45 44 47 53 57 62 66 67 63
62 73 73 68 70 77 83 90 95 95 96 96 93 90 91 93 93 96 97 93 91 88 85 80 74 69 62 56 51 48 45 44 47 48 50 51 53 59 66 67 69 73 75
54 62 71 76 81 80 82 88 92 97 97 100 99 98 97 94 97 98 98 97 94 90 87 83 77 73 65 61 56 50 46 45 45 51 53 52 56 59 65 67 71 75 77
50 54 62 65 73 79 84 87 87 94 96 102 102 100 99 99 99 99 103 100 97 94 89 84 78 73 66 62 58 52 48 44 44 50 51 51 55 59 65 70 75 77 83
62 52 61 62 62 73 83 85 89 92 95 94 95 99 101 103 106 105 105 100 101 99 93 87 82 76 70 66 61 54 46 44 45 48 49 51 54 57 63 69 75 80 88
78 67 58 56 64 66 72 80 85 91 93 93 94 99 102 108 108 103 103 104 103 102 98 92 85 78 74 69 61 54 48 44 46 46 45 50 49 54 58 64 72 80 83
83 79 67 58 55 63 65 72 79 82 89 93 96 103 100 102 108 107 107 104 103 103 99 93 86 81 74 69 62 57 51 47 45 42 46 41 46 46 54 60 67 72 79
84 84 81 71 59 52 52 67 74 72 81 87 94 105 102 99 107 107 107 104 102 101 100 94 86 81 77 71 64 58 48 41 39 38 40 36 38 41 48 56 64 73 79
83 83 83 82 75 59 51 55 64 66 71 82 89 98 99 94 101 102 107 107 105 105 97 90 87 82 74 71 67 57 48 39 37 37 35 31 30 33 41 55 59 70 86
89 79 76 79 81 75 57 50 52 61 70 69 78 87 86 90 94 98 110 103 98 99 98 90 86 79 78 76 67 56 46 37 37 34 29 28 30 33 38 46 54 62 69
98 97 79 70 70 71 63 47 44 49 58 67 65 75 78 83 81 96 106 100 100 97 95 94 90 85 80 72 64 54 41 39 37 32 29 28 30 33 39 44 46 54 65
98 91 89 73 65 63 64 55 44 45 48 59 63 66 68 68 73 87 92 93 91 94 98 91 88 83 76 66 58 48 41 43 35 30 28 27 31 34 37 45 47 54 60
107 103 93 87 75 63 64 60 53 52 48 53 59 64 66 64 69 81 80 82 82 82 85 83 82 80 70 58 52 50 47 38 33 29 26 27 31 36 39 43 50 56 65
114 111 101 92 86 74 67 62 60 61 60 61 56 67 67 67 71 85 87 82 73 76 69 70 70 70 64 63 59 48 43 39 33 28 26 28 32 35 37 46 58 64 76
113 112 107 94 85 81 76 67 65 68 60 75 70 67 74 71 80 94 96 99 91 80 75 76 72 72 70 61 52 48 43 35 28 25 24 27 32 37 40 47 58 68 75
104 108 101 91 88 74 74 76 69 64 63 69 72 71 76 67 67 81 94 95 90 81 79 91 91 81 71 60 55 49 41 32 27 24 22 26 32 38 45 52 58 68 77
91 94 91 85 82 79 63 70 77 71 58 70 69 66 71 63 62 62 86 89 78 80 85 86 86 80 68 58 54 45 36 29 26 23 20 24 31 38 46 56 63 68 78
83 83 83 83 77 75 70 65 70 72 62 59 69 58 59 60 60 60 72 80 77 86 92 85 81 68 62 61 54 45 38 31 26 23 22 24 29 39 48 58 65 70 77
81 80 78 77 76 74 70 61 72 69 64 63 58 56 59 59 48 54 69 103 104 101 81 79 71 65 64 57 50 42 36 28 26 23 21 26 29 37 48 59 66 71 77
77 74 71 71 70 64 60 57 74 67 61 59 58 56 64 56 55 74 91 92 94 99 85 79 73 67 63 55 47 40 31 26 22 22 20 26 29 36 50 61 67 74 81
74 74 71 69 65 61 54 58 66 61 59 57 55 53 67 70 68 77 82 88 96 92 80 70 66 63 57 50 42 35 30 24 22 22 24 26 30 40 50 60 67 74 86
73 72 68 64 59 49 43 54 55 53 53 51 49 49 55 61 74 82 89 87 82 75 66 60 61 55 47 40 35 29 24 20 19 22 24 27 31 42 52 61 68 77 88
62 62 58 47 42 35 40 47 48 46 46 47 48 48 63 73 75 85 89 80 68 56 54 53 49 46 40 33 29 23 17 16 17 21 25 29 33 44 52 62 69 78 88
44 27 25 22 22 29 36 35 35 38 44 47 57 62 68 70 72 68 68 70 55 55 49 45 40 36 30 26 22 18 16 16 17 20 27 31 37 45 55 64 69 75 86
25 15 13 17 21 24 23 25 27 34 44 50 53 57 56 58 62 59 61 51 51 48 45 39 34 28 24 21 18 16 15 17 20 22 26 32 39 48 56 63 68 74 84
22 13 5 2 7 12 16 22 29 33 37 43 48 52 48 47 53 56 48 47 46 40 37 33 27 22 18 16 16 16 17 19 21 24 27 30 40 50 57 63 68 73 83
Wind_Direction_500mb
307 294 279 267 259 253 248 245 243 242 241 239 235 234 232 232 230 232 234 234 234 234 234 236 238 241 244 247 252 258 264 269 273 280 287 295 300 306 312 316 318 317 316
313 300 285 275 265 258 254 250 248 245 244 243 240 235 234 231 230 231 232 232 231 232 233 234 236 238 241 245 249 253 258 266 274 283 292 299 309 320 321 325 325 327 328
302 301 297 286 274 266 258 254 250 247 246 245 243 240 236 232 232 231 232 233 233 233 234 234 235 237 238 242 246 249 254 259 271 282 290 301 313 318 322 324 327 329 328
319 300 292 291 288 282 275 268 261 254 250 248 245 243 242 238 235 232 231 230 232 233 233 232 233 235 238 241 243 245 249 258 270 279 289 302 312 322 324 326 325 328 327
337 318 303 294 286 282 277 273 269 262 257 252 249 246 244 241 237 233 231 231 231 231 229 229 231 232 235 237 239 243 246 255 267 278 288 300 315 324 323 327 325 326 323
344 337 324 296 281 277 276 271 268 264 257 252 251 247 245 243 240 237 234 232 231 230 228 227 228 229 231 235 238 238 244 256 266 272 290 305 317 317 320 323 325 328 329
341 341 340 327 296 275 273 270 266 266 263 256 250 246 243 242 242 235 233 230 230 229 227 226 226 227 228 230 232 235 240 256 268 279 290 304 306 315 319 320 322 322 320
332 329 338 340 328 306 282 272 266 262 262 259 254 250 243 247 241 235 233 230 227 227 226 225 226 227 227 227 227 229 236 244 255 271 284 292 300 316 321 317 317 316 314
323 324 322 332 335 327 309 289 274 263 256 253 250 248 246 244 238 234 233 230 224 223 222 223 223 223 223 226 225 227 230 236 248 262 279 296 302 308 312 308 313 315 316
320 320 316 315 319 329 322 304 287 269 260 253 248 246 243 240 235 231 231 227 224 219 218 220 222 222 222 222 224 227 230 236 245 256 268 280 291 302 306 304 309 310 312
314 314 313 308 304 308 314 312 300 281 265 255 247 247 243 239 231 229 231 228 224 220 219 220 219 219 219 221 224 227 229 234 243 253 264 280 292 303 303 302 308 310 311
314 311 311 309 304 299 299 299 295 280 272 259 250 244 240 235 225 223 218 228 222 222 222 220 220 218 216 216 219 223 224 232 240 251 267 284 294 298 300 307 313 311 308
311 308 305 306 301 296 291 289 287 278 266 263 254 246 238 230 220 212 205 220 218 220 224 223 218 214 210 211 211 215 222 230 237 249 268 282 291 298 306 312 311 314 313
305 304 305 302 299 290 284 283 278 273 272 261 254 244 238 226 214 211 202 214 222 218 218 221 213 207 206 208 208 212 222 227 236 250 265 279 290 299 310 318 318 321 316
300 300 300 298 295 289 283 277 277 272 270 269 263 255 243 231 221 212 205 208 216 215 203 204 205 207 206 206 206 214 219 227 237 252 268 285 299 307 317 322 322 323 319
296 295 295 294 290 283 281 282 271 273 270 268 266 262 258 252 241 220 213 209 216 216 201 201 202 205 210 207 208 212 216 224 237 251 270 291 306 313 319 323 326 325 325
293 291 290 288 285 284 278 272 276 268 268 266 261 258 260 254 251 233 214 204 206 207 212 203 203 207 203 205 207 208 217 223 240 256 277 298 309 313 321 326 329 329 328
291 287 285 284 282 281 278 268 264 271 268 264 256 243 237 248 240 234 211 192 194 202 213 208 205 206 202 202 206 208 211 221 236 255 277 295 306 315 325 330 330 331 333
291 287 284 281 278 277 270 268 264 267 265 262 254 245 231 227 212 218 205 192 193 203 205 211 209 199 199 201 204 208 213 219 237 252 272 291 306 318 329 332 332 333 337
292 290 288 284 281 276 269 258 254 258 258 255 250 242 223 211 201 198 194 195 197 206 209 207 199 193 197 199 203 209 213 223 240 262 278 291 309 322 331 334 332 337 335
296 292 289 284 278 272 258 250 253 258 256 250 244 234 220 216 196 196 193 202 204 209 211 201 193 191 195 198 202 208 213 223 242 264 281 297 315 325 332 332 333 339 337
295 291 286 275 273 271 253 247 254 254 253 245 236 227 209 210 199 196 200 204 208 211 201 195 189 193 195 197 201 209 216 231 254 272 289 306 319 326 329 332 335 337 338
306 292 282 271 263 251 248 250 247 242 236 230 224 216 197 203 201 201 203 202 198 195 189 185 188 192 193 195 204 213 226 248 266 283 296 313 320 324 328 332 335 334 338
322 295 274 266 259 248 245 242 234 224 214 209 195 194 200 201 200 197 192 187 195 189 181 184 188 193 197 205 216 225 243 264 285 292 302 312 315 324 331 332 330 332 335
341 324 287 264 245 234 226 223 219 206 196 195 193 196 197 192 189 184 183 186 180 177 180 183 192 199 207 219 232 246 262 280 292 292 297 302 318 330 328 326 331 331 333
15 21 35 194 201 201 200 195 193 194 192 192 192 191 185 177 177 177 177 170 172 175 184 190 194 202 213 227 243 257 270 283 288 286 287 311 321 323 324 327 331 329 331
Wind_Speed_850mb
57 54 58 67 72 81 91 99 97 93 91 89 88 86 88 92 94 92 91 87 84 81 79 75 70 63 58 52 48 45 44 45 47 46 45 44 47 53 57 62 66 67 63
62 73 73 68 70 77 83 90 95 95 96 96 93 90 91 93 93 96 97 93 91 88 85 80 74 69 62 56 51 48 45 44 47 48 50 51 53 59 66 67 69 73 75
54 62 71 76 81 80 82 88 92 97 97 100 99 98 97 94 97 98 98 97 94 90 87 83 77 73 65 61 56 50 46 45 45 51 53 52 56 59 65 67 71 75 77
50 54 62 65 73 79 84 87 87 94 96 102 102 100 99 99 99 99 103 100 97 94 89 84 78 73 66 62 58 52 48 44 44 50 51 51 55 59 65 70 75 77 83
62 52 61 62 62 73 83 85 89 92 95 94 95 99 101 103 106 105 105 100 101 99 93 87 82 76 70 66 61 54 46 44 45 48 49 51 54 57 63 69 75 80 88
78 67 58 56 64 66 72 80 85 91 93 93 94 99 102 108 108 103 103 104 103 102 98 92 85 78 74 69 61 54 48 44 46 46 45 50 49 54 58 64 72 80 83
83 79 67 58 55 63 65 72 79 82 89 93 96 103 100 102 108 107 107 104 103 103 99 93 86 81 74 69 62 57 51 47 45 42 46 41 46 46 54 60 67 72 79
84 84 81 71 59 52 52 67 74 72 81 87 94 105 102 99 107 107 107 104 102 101 100 94 86 81 77 71 64 58 48 41 39 38 40 36 38 41 48 56 64 73 79
83 83 83 82 75 59 51 55 64 66 71 82 89 98 99 94 101 102 107 107 105 105 97 90 87 82 74 71 67 57 48 39 37 37 35 31 30 33 41 55 59 70 86
89 79 76 79 81 75 57 50 52 61 70 69 78 87 86 90 94 98 110 103 98 99 98 90 86 79 78 76 67 56 46 37 37 34 29 28 30 33 38 46 54 62 69
98 97 79 70 70 71 63 47 44 49 58 67 65 75 78 83 81 96 106 100 100 97 95 94 90 85 80 72 64 54 41 39 37 32 29 28 30 33 39 44 46 54 65
98 91 89 73 65 63 64 55 44 45 48 59 63 66 68 68 73 87 92 93 91 94 98 91 88 83 76 66 58 48 41 43 35 30 28 27 31 34 37 45 47 54 60
107 103 93 87 75 63 64 60 53 52 48 53 59 64 66 64 69 81 80 82 82 82 85 83 82 80 70 58 52 50 47 38 33 29 26 27 31 36 39 43 50 56 65
114 111 101 92 86 74 67 62 60 61 60 61 56 67 67 67 71 85 87 82 73 76 69 70 70 70 64 63 59 48 43 39 33 28 26 28 32 35 37 46 58 64 76
113 112 107 94 85 81 76 67 65 68 60 75 70 67 74 71 80 94 96 99 91 80 75 76 72 72 70 61 52 48 43 35 28 25 24 27 32 37 40 47 58 68 75
104 108 101 91 88 74 74 76 69 64 63 69 72 71 76 67 67 81 94 95 90 81 79 91 91 81 71 60 55 49 41 32 27 24 22 26 32 38 45 52 58 68 77
91 94 91 85 82 79 63 70 77 71 58 70 69 66 71 63 62 62 86 89 78 80 85 86 86 80 68 58 54 45 36 29 26 23 20 24 31 38 46 56 63 68 78
83 83 83 83 77 75 70 65 70 72 62 59 69 58 59 60 60 60 72 80 77 86 92 85 81 68 62 61 54 45 38 31 26 23 22 24 29 39 48 58 65 70 77
81 80 78 77 76 74 70 61 72 69 64 63 58 56 59 59 48 54 69 103 104 101 81 79 71 65 64 57 50 42 36 28 26 23 21 26 29 37 48 59 66 71 77
77 74 71 71 70 64 60 57 74 67 61 59 58 56 64 56 55 74 91 92 94 99 85 79 73 67 63 55 47 40 31 26 22 22 20 26 29 36 50 61 67 74 81
74 74 71 69 65 61 54 58 66 61 59 57 55 53 67 70 68 77 82 88 96 92 80 70 66 63 57 50 42 35 30 24 22 22 24 26 30 40 50 60 67 74 86
73 72 68 64 59 49 43 54 55 53 53 51 49 49 55 61 74 82 89 87 82 75 66 60 61 55 47 40 35 29 24 20 19 22 24 27 31 42 52 61 68 77 88
62 62 58 47 42 35 40 47 48 46 46 47 48 48 63 73 75 85 89 80 68 56 54 53 49 46 40 33 29 23 17 16 17 21 25 29 33 44 52 62 69 78 88
44 27 25 22 22 29 36 35 35 38 44 47 57 62 68 70 72 68 68 70 55 55 49 45 40 36 30 26 22 18 16 16 17 20 27 31 37 45 55 64 69 75 86
25 15 13 17 21 24 23 25 27 34 44 50 53 57 56 58 62 59 61 51 51 48 45 39 34 28 24 21 18 16 15 17 20 22 26 32 39 48 56 63 68 74 84
22 13 5 2 7 12 16 22 29 33 37 43 48 52 48 47 53 56 48 47 46 40 37 33 27 22 18 16 16 16 17 19 21 24 27 30 40 50 57 63 68 73 83
Wind_Direction_850mb
307 294 279 267 259 253 248 245 243 242 241 239 235 234 232 232 230 232 234 234 234 234 234 236 238 241 244 247 252 258 264 269 273 280 287 295 300 306 312 316 318 317 316
313 300 285 275 265 258 254 250 248 245 244 243 240 235 234 231 230 231 232 232 231 232 233 234 236 238 241 245 249 253 258 266 274 283 292 299 309 320 321 325 325 327 328
302 301 297 286 274 266 258 254 250 247 246 245 243 240 236 232 232 231 232 233 233 233 234 234 235 237 238 242 246 249 254 259 271 282 290 301 313 318 322 324 327 329 328
319 300 292 291 288 282 275 268 261 254 250 248 245 243 242 238 235 232 231 230 232 233 233 232 233 235 238 241 243 245 249 258 270 279 289 302 312 322 324 326 325 328 327
337 318 303 294 286 282 277 273 269 262 257 252 249 246 244 241 237 233 231 231 231 231 229 229 231 232 235 237 239 243 246 255 267 278 288 300 315 324 323 327 325 326 323
344 337 324 296 281 277 276 271 268 264 257 252 251 247 245 243 240 237 234 232 231 230 228 227 228 229 231 235 238 238 244 256 266 272 290 305 317 317 320 323 325 328 329
341 341 340 327 296 275 273 270 266 266 263 256 250 246 243 242 242 235 233 230 230 229 227 226 226 227 228 230 232 235 240 256 268 279 290 304 306 315 319 320 322 322 320
332 329 338 340 328 306 282 272 266 262 262 259 254 250 243 247 241 235 233 230 227 227 226 225 226 227 227 227 227 229 236 244 255 271 284 292 300 316 321 317 317 316 314
323 324 322 332 335 327 309 289 274 263 256 253 250 248 246 244 238 234 233 230 224 223 222 223 223 223 223 226 225 227 230 236 248 262 279 296 302 308 312 308 313 315 316
320 320 316 315 319 329 322 304 287 269 260 253 248 246 243 240 235 231 231 227 224 219 218 220 222 222 222 222 224 227 230 236 245 256 268 280 291 302 306 304 309 310 312
314 314 313 308 304 308 314 312 300 281 265 255 247 247 243 239 231 229 231 228 224 220 219 220 219 219 219 221 224 227 229 234 243 253 264 280 292 303 303 302 308 310 311
314 311 311 309 304 299 299 299 295 280 272 259 250 244 240 235 225 223 218 228 222 222 222 220 220 218 216 216 219 223 224 232 240 251 267 284 294 298 300 307 313 311 308
311 308 305 306 301 296 291 289 287 278 266 263 254 246 238 230 220 212 205 220 218 220 224 223 218 214 210 211 211 215 222 230 237 249 268 282 291 298 306 312 311 314 313
305 304 305 302 299 290 284 283 278 273 272 261 254 244 238 226 214 211 202 214 222 218 218 221 213 207 206 208 208 212 222 227 236 250 265 279 290 299 310 318 318 321 316
300 300 300 298 295 289 283 277 277 272 270 269 263 255 243 231 221 212 205 208 216 215 203 204 205 207 206 206 206 214 219 227 237 252 268 285 299 307 317 322 322 323 319
296 295 295 294 290 283 281 282 271 273 270 268 266 262 258 252 241 220 213 209 216 216 201 201 202 205 210 207 208 212 216 224 237 251 270 291 306 313 319 323 326 325 325
293 291 290 288 285 284 278 272 276 268 268 266 261 258 260 254 251 233 214 204 206 207 212 203 203 207 203 205 207 208 217 223 240 256 277 298 309 313 321 326 329 329 328
291 287 285 284 282 281 278 268 264 271 268 264 256 243 237 248 240 234 211 192 194 202 213 208 205 206 202 202 206 208 211 221 236 255 277 295 306 315 325 330 330 331 333
291 287 284 281 278 277 270 268 264 267 265 262 254 245 231 227 212 218 205 192 193 203 205 211 209 199 199 201 204 208 213 219 237 252 272 291 306 318 329 332 332 333 337
292 290 288 284 281 276 269 258 254 258 258 255 250 242 223 211 201 198 194 195 197 206 209 207 199 193 197 199 203 209 213 223 240 262 278 291 309 322 331 334 332 337 335
296 292 289 284 278 272 258 250 253 258 256 250 244 234 220 216 196 196 193 202 204 209 211 201 193 191 195 198 202 208 213 223 242 264 281 297 315 325 332 332 333 339 337
295 291 286 275 273 271 253 247 254 254 253 245 236 227 209 210 199 196 200 204 208 211 201 195 189 193 195 197 201 209 216 231 254 272 289 306 319 326 329 332 335 337 338
306 292 282 271 263 251 248 250 247 242 236 230 224 216 197 203 201 201 203 202 198 195 189 185 188 192 193 195 204 213 226 248 266 283 296 313 320 324 328 332 335 334 338
322 295 274 266 259 248 245 242 234 224 214 209 195 194 200 201 200 197 192 187 195 189 181 184 188 193 197 205 216 225 243 264 285 292 302 312 315 324 331 332 330 332 335
341 324 287 264 245 234 226 223 219 206 196 195 193 196 197 192 189 184 183 186 180 177 180 183 192 199 207 219 232 246 262 280 292 292 297 302 318 330 328 326 331 331 333
15 21 35 194 201 201 200 195 193 194 192 192 192 191 185 177 177 177 177 170 172 175 184 190 194 202 213 227 243 257 270 283 288 286 287 311 321 323 324 327 331 329 331